Location: Baix
(44.7118°N, 4.7648°E)
Time: 19:20:17
(UTC+00:00)

Cosmos 1707 - Pass Details

Date: 07 August 2020
Orbit: 515 x 531 km, 82.5° (Epoch: 24 September)

Event Time Altitude Azimuth Distance (km) Brightness Sun altitude
Rises 01:12:28 0° 344° (NNW) 2,686 7.1 -25.9°
Reaches altitude 10° 01:14:42 10° 337° (NNW) 1,791 5.9 -25.8°
Enters shadow 01:16:49 27° 317° (NW) 1,052 4.4 -25.6°
